Find Galaxy 33

NORAD ID: 54026 Int'l Des: 2022-128 Owner: INTELU Country: US operational
HEOCIRCULARGSOGEO

Aktuelle Ansicht

3D-Globus wird geladen...

Über Galaxy 33

Beschreibung wird geladen...

Nächste Überflüge

Passes for default location (London). Set your location on the main map for personalized predictions.

Höhenverlauf

Loading altitude history...

Zweizeiliger Elementsatz

1 54026U 22128A 26147.93447654 .00000086 00000-0 00000+0 0 9997
2 54026 0.0077 309.8424 0002024 121.4478 17.6264 1.00274262 13541
Epoch: 27. Mai 2026 • Age: 58 hours

Aktueller Status

Höhe 35793.5 km
Geschwindigkeit 3.07 km/s
Subsatellitenpunkt -0.03°S, 132.96°W
Startdatum 8. Okt. 2022
Alter 3.6 years
Typ other

Technische Details

Klassifizierung Payload
Masse 3700.00 kg
Trockenmasse 2500.00 kg
Gesamtmasse 3700.00 kg
Länge 5.00 m
Durchmesser 2.50 m
Spannweite 23.00 m
Form Box + 2 pan
Hersteller NGISD
Bus-Typ Geostar-2.4E
Phasenstatus In Orbit
Besitzer/Staat INTELU/US

Most Searched